sat.trackr.live / text

‹ back to catalog

STARLINK-37426

NORAD 68813 · 2026-089M

PAYLOAD ACTIVE UNKNOWN

§ Identity

Operator
Country
US
Launch date
2026-04-23
Launch site
AFWTR
Launch vehicle
Mass (kg)
RCS (m²)

Purposes: comms

External: N2YO · Heavens-Above · Gunter

§ Orbital elements

Epoch: 2026-09-19T08:39:02.407392Z

Period
93.91 min
Inclination
97.2839°
Eccentricity
0.0002965
Mean motion
15.33429818 rev/d
Perigee alt
463.6 km
Apogee alt
467.6 km
Semi-major
6,843.7 km
B*
3.9844e-4
RAAN
108.1294°
Arg perigee
74.6533°
Mean anomaly
285.5037°
Rev number
2,308

§ Raw data

STARLINK-374261 68813U 26089M   26262.36044453  .00012805  00000+0  39844-3 0  99942 68813  97.2839 108.1294 0002965  74.6533 285.5037 15.33429818 23088

JSON: /api/v1/satellites/68813 · /tle

For live sub-satellite position, see the globe view (requires WebGL).

§ Visibility from observer

Set your observer location to see the next 7 days of passes ≥ 10°. The values pass through the URL so the page stays shareable.

No JS? Fill the form by hand. The geolocation button needs JavaScript.